www.pogodaiklimat.ru

Погода и климат >> Архив погоды >> Индия >> Западная Бенгалия >> Сантиникетан


ПОГОДА в Сантиникетане

  • Прогноз погоды в Сантиникетане
  • Монитор погоды в Сантиникетане

АРХИВ ПОГОДЫ в Сантиникетане

Время (UTC), дата Ветер
(напр.,м/с)
 
Видим.   Явления Облачность Т
(С)
Тd
(С)
f
(%)
Тe
(С)
Тes
(С)
Комфортность P
(гПа)
Po
(гПа)
Тmin
(С)
Tmax
(С)
R
(мм)
R24
(мм)
S
(см)
06 15.04 В 1 10 км ясно +35.4 +25.6 57 +50 +75 опасность
перегрева
1007.7 1001.1
09 15.04 В 1 10 км ясно +36.2 +27.5 61 +55 +69 опасность
перегрева
1004.6 998.1
12 15.04 СВ 2 4000 м гроза без осадков 6/4 600 м
[Cb cap Ac trans Ci fib]
+34.4 +27.6 68 +54 +54 опасность
перегрева
1004.5 997.9 +36.4
03 16.04 штиль 0 4000 м мгла 9/6 600 м
[Sc As trans]
+29.4 +26.0 82 +44 +47 опасность
перегрева
1009.7 1003.0 +26.2
06 16.04 В 1 4000 м 3/0 2000 м
[Ac trans Ci fib]
+33.8 +26.0 64 +50 +72 опасность
перегрева
1008.5 1001.9
09 16.04 В 1 10 км 3/3 600 м
[Sc]
+36.4 +25.9 55 +52 +62 опасность
перегрева
1005.6 999.1
12 16.04 В 1 10 км 9/8 600 м
[Cb calv Ac As]
+34.0 +26.8 66 +51 +51 опасность
перегрева
1005.6 999.0 +36.8
03 17.04 штиль 0 4000 м ясно +27.2 +21.5 71 +35 +49 очень
душно
1011.7 1004.9 +21.2 4
06 17.04 С 2 4000 м 9/6 600 м
[Cb calv Ac trans]
+31.4 +23.9 64 +43 +48 опасность
перегрева
1012.3 1005.6
09 17.04 З 1 10 км 4/3 600 м
[Sc Ac trans]
+33.2 +18.9 43 +38 +47 очень
душно
1009.9 1003.3
12 17.04 СЗ 1 10 км 3/0 2000 м
[Ac trans]
+30.6 +19.3 51 +36 +37 очень
душно
1009.8 1003.1 +34.3
03 18.04 СЗ 2 4000 м 8/8 600 м
[]
+28.0 +19.0 58 +33 +35 очень
душно
1013.5 1006.7 +20.9
06 18.04 СЗ 1 10 км 8/5 600 м
[Sc diur, vesp Ac As]
+30.0 +18.2 49 +35 +42 очень
душно
1012.8 1006.1
09 18.04 С 1 10 км ясно +33.6 +20.5 46 +40 +54 опасность
солнечного
удара
1008.5 1001.9
12 18.04 ЮВ 1 10 км 1/0 2000 м
[Ac trans]
+32.0 +20.6 51 +39 +39 очень
душно
1007.2 1000.6 +34.2
03 19.04 СЗ 2 4000 м 8/5 600 м
[Sc Ac trans]
+27.8 +19.5 61 +34 +37 очень
душно
1010.9 1004.1 +23.4
06 19.04 З 1 10 км 9/6 600 м
[Sc Ac trans]
+33.4 +17.2 38 +37 +42 очень
душно
1009.6 1003.0
09 19.04 З 3 10 км 8/5 600 м
[Sc diur, vesp Ac trans]
+33.8 +18.1 39 +38 +41 очень
душно
1007.3 1000.7
12 19.04 штиль 0 10 км 3/3 1000 м
[Sc]
+30.0 +21.0 59 +38 +38 очень
душно
1005.7 999.0 +34.6
03 20.04 СЗ 1 4000 м ясно +28.0 +17.6 53 +32 +45 душно 1009.3 1002.6 +20.8
06 20.04 З 2 10 км ясно +34.4 +18.5 39 +39 +62 опасность
солнечного
удара
1008.0 1001.4
09 20.04 З 2 10 км ясно +36.4 +14.6 27 +37 +51 опасность
солнечного
удара
1004.2 997.7
12 20.04 ЮВ 2 10 км 3/1 600 м
[Sc diur, vesp Ac trans]
+34.2 +17.9 38 +38 +38 очень
душно
1003.1 996.5 +36.8
03 21.04 Ю 1 10 км ясно +30.0 +24.3 72 +42 +55 опасность
перегрева
1007.2 1000.5 +23.6
06 21.04 Ю 1 10 км 4/4 600 м
[Sc]
+36.0 +22.7 46 +45 +61 опасность
перегрева
1006.6 1000.1
09 21.04 ЮВ 2 10 км 6/4 600 м
[Cb calv Ac trans Ci fib]
+37.8 +17.2 30 +41 +47 опасность
перегрева
1002.4 995.9
12 21.04 Ю 3 4000 м гроза без осадков 10/6 600 м
[Cb cap Ac As]
+23.0 +18.9 78 +29 +29 очень
душно
1004.6 997.8 +37.8 1
03 22.04 В 2 4000 м ясно +26.0 +19.5 67 +31 +43 очень
душно
1009.0 1002.2 +19.6 1

 

Местоположение метеостанции Сантиникетан (Западная Бенгалия, Индия): широта 23.65 долгота 87.70 высота над уровнем моря 59 м.

В архиве по умолчанию представлена погода в Сантиникетане за последнюю неделю. Архивные данные за месяц целиком и за предыдущие месяцы, начиная с января 2011 года, Вы можете получить, выбрав интересующий диапазон дат из раскрывающегося списка и нажав кнопку "Ввод!".


*Определитесь, кто Вы:
робот инопланетянин человек

Внимание! Время в таблицах - всемирное. Для получения местного времени необходимо прибавить поправку, которая равна 5.5 ч.

Смотрите также архив погоды в соседних городах и на ближайших метеорологических станциях:

Погода в Панагаре (Западная Бенгалия, Индия) (34 км)
Погода в Бардхамане (Западная Бенгалия, Индия) (49 км)
Погода в Асансоле (Западная Бенгалия, Индия) (73 км)
Погода в Бахарампуре (Западная Бенгалия, Индия) (79 км)
Погода в Банкуре (Западная Бенгалия, Индия) (80 км)
Погода в Кришнанагаре (Западная Бенгалия, Индия) (88 км)
Погода в Багати (Западная Бенгалия, Индия) (101 км)
Погода в Чуаданге (Бангладеш) (114 км)
Погода в Бадалхачги (Бангладеш) (121 км)
Погода в Раджшахи (Бангладеш) (129 км)

Пояснения к столбцам:

Ветер - указаны скорость ветра в м/с - средняя за 10 мин, порывы в срок и между сроками (в фигурных скобках) и направление, откуда дует ветер: С - северный, СВ - северо-восточный, В - восточный, ЮВ - юго-восточный, Ю - южный, ЮЗ - юго-западный, З - западный, СЗ - северо-западный.
Видимость - горизонтальная дальность видимости в метрах или километрах. При видимости от 1 до 10 км при отсутствии осадков обычно наблюдается дымка, при ухудшении видимости до 1 км и менее - туман. В сухую погоду видимость может ухудшаться дымом, пылью или мглою.
Явления - указаны атмосферные явления, наблюдавшиеся в срок или в последний час перед сроком; фигурными скобками обозначены явления, наблюдавшиеся между сроками (за 1-3 часа до срока); квадратными скобками обозначены град или гололедные отложения с указанием их диаметра в мм.
Облачность - указаны через наклонную черту общая и нижняя облачность в баллах и высота нижней границы облаков в метрах; квадратными скобками обозначены формы облаков: Ci - перистые, Cs - перисто-слоистые, Cc - перисто-кучевые, Ac - высококучевые, As - высокослоистые, Sc - слоисто-кучевые, Ns - слоисто-дождевые, Cu - кучевые, Cb - кучево-дождевые. Подробнее классификацию облаков см. в Атласе облаков (PDF).
T - Температура воздуха - температура, измеренная на высоте 2 м над землей.
Td - Температура точки росы - температура, при понижении до которой содержащийся в воздухе водяной пар достигнет насыщения.
f - Относительная влажность воздуха - влажноcть воздуха, измеренная на высоте 2 м над землей.
Te - Эффективная температура - температура, которую ощущает одетый по сезону человек в тени. Характеристика душности погоды. При расчете учитывается влияние влажности воздуха и скорости ветра на теплоощущения человека.
Tes - Эффективная температура на солнце - температура, которую ощущает человек, с поправкой на солнечный нагрев. Характеристика знойности погоды. Зависит от высоты солнца над горизонтом, облачности и скорости ветра. Ночью, в пасмурную погоду, а также при ветре 12 м/с и более поправка равна нулю.
P - Атмосферное давление - приведенное к уровню моря атмосферное давление.
Po - Атмосферное давление - измеренное на уровне метеостанции атмосферное давление.
Tmin - Минимальная температура - минимум температуры воздуха на высоте 2 м над землей.
Tmax - Максимальная температура - максимум температуры воздуха на высоте 2 м над землей.
R - Количество осадков - Количество выпавших осадков за период времени, мм. При наведении курсора мыши на число - период времени, за который выпало указанное количество осадков.
R24 - Количество осадков - Количество выпавших осадков за 24 часа, мм.
S - Снежный покров - Высота снежного покрова, см. При наведении курсора мыши на число - состояние снежного покрова и степень покрытия местности в баллах.